Showing default

EGYPTSAT A, 44047

Orbit data source: Space-Track

EGYPTSAT A, 44047 is a payload satellite owned by EgSA (EG) in SSO that was launched on Thu, 21 Feb 2019 UTC via a SOYUZ-2-1B launch vehicle from the Tyuratam Missile And Space Complex (TTMTR). Payload-class satellites include a variety of spacecraft equipped with specific instruments for various scientific and technological missions. These include communications satellites like Starlink; space stations such as the ISS; scientific satellites like the Hubble; Earth observation satellites from companies like Planet Labs, Umbra, and HawkEye 360; GPS; miniature CubeSats for education and research; and military/defense satellites.

Loading next visibility...
Identifier
44047, 2019-008A
Orbit
SSO
Last TLE update
5 hours ago
Origin
Manufacturer
Yuzhnoe
Mission
Operational Civil Imaging
Bus & Motor
EGYPTSAT, Unknown motor
Mass
~1,050 kg wet, ~1,050 kg dry
Launch date (UTC)
2019-02-21 (6 years ago)
Launch vehicle
SOYUZ-2-1B
Launch site
Tyuratam Missile And Space Complex (TTMTR)
Object type
Payload
Rocket body
Debris
Shape & HBR
Box + 4 Pan + 1 Ant, 2 m
Radar Cross Section
0.867 m², Large (>1 m²)

Expand to show TLE details & history

TLE from 5 hours ago
0 EGYPTSAT A
1 44047U 19008A   25190.14240457  .00000424  00000-0  75116-4 0  9995
2 44047  98.0185 254.9139 0001404  81.6192 278.5174 14.72221804342768
Epoch: 2025-07-09T03:25Z
TLE epoch observation values (Epoch: 2025-07-09T03:25:03.754Z)
Latitude
-0.00009°
Longitude
-83.67901°
Altitude
656.845 km
Speed
7.529 km/s
True Right ascension
16h 59m 39s
True Declination
0° 00' 00"
Sunlit
Object was in full shadow at epoch
Visualization orbit readout
Latitude
69.70244°
Longitude
118.80255°
Altitude
665.154 km
Speed
7.531 km/s
Apparent Right ascension
08h 09m 16s
Apparent Declination
19° 43' 06"
Sunlit
Object is in daylight
Visualization observer readout
Local Sidereal Time
20:57:55
Azimuth
13.148° NNE
Elevation
-29.295°
Doppler factor
1
Orbital elements
Apogee altitude
652.028 km
Perigee altitude
650.054 km
Semi-major axis
7,029.178 km
Eccentricity
0.00014
Inclination
98.0185°
RAAN
254.9139°
Arg. of periapsis
81.6192°
True anomaly
Unknown
Mean anomaly
278.5174°
Eccentric anomaly
Unknown
Mean motion
3.68287 °/min
Orbital period
97.75 mins
BSTAR
0.000075116
Loading maneuver chart data...
Loading SW <> Apogee altitude chart data...
Loading historical data...
Loading historical data...
Loading historical data...
Loading historical data...
Loading historical data...
Loading historical data...
Loading historical data...
Other satellites on launch #8 in the year 2019 (2019-02-21 UTC)

EGYPTSAT A Visibility forecast

Observer location: undefined°, undefined°

Span
Click to sort rows by Start time (UTC) header in descending order
Start Az.
Max El. time (UTC)
Max El. Az.
Max El.
End time (UTC)
End Az.
8 mins2025-07-09 17:02:12.699Z19.499° NNE2025-07-09 17:06:12.699Z114.726° SE42.548°2025-07-09 17:10:12.699Z184.072° SSW
7 mins2025-07-10 04:01:12.699Z145.786° SSE2025-07-10 04:04:12.699Z80.093° E39.243°2025-07-10 04:08:12.699Z358.066° N
|